OBJECT A, 60468

Orbit data source: Space-Track

You're viewing an Uncataloged Satellite

Recently launched and/or uncataloged satellites may have evolving metadata. Metadata may include but not limited to: Owner, Maufacturer, Bus, Motor, and Mission.

OBJECT A, 60468 is a satellite in SSO that was launched on Fri, 16 Aug 2024 UTC launched from the Air Force Western Test Range (AFWTR). Unknown objects in Earth's orbit typically refer to objects detected orbiting the Earth but have not yet been identified or cataloged. These objects could be anything from previously untracked satellites, spent rocket stages, debris from satellite collisions, or even natural meteoroids temporarily captured by Earth's gravity.

Loading next visibility...
Identifier
60468, 2024-149A
Orbit
SSO
Country
Flag of TBDTBD
Related business
None
Manufacturer
Unknown
Mission
Operational Commercial Imaging
Bus & Motor
Unknown
Mass
Unknown
Launch date (UTC)
2024-08-16 (1 year ago)
Launch vehicle
Unknown
Launch site
Air Force Western Test Range (AFWTR)
Object type
Unknown
Shape & HBR
Box + 2 Pan, 0.3 m
Radar Cross Section
0.072 m², Medium (>0.1 m² and < 1m²)

Expand to show TLE details & history
Last TLE update: 19 hours ago

TLE from 19 hours ago
0 OBJECT A
1 60468U 24149A   26034.23127240  .00011474  00000-0  39302-3 0  9997
2 60468  97.3847 114.7626 0003088   1.8526 358.2726 15.30368210 81553
Epoch: 2026-02-03T05:33Z
TLE epoch observation values (Epoch: 2026-02-03T05:33:01.935Z)
Latitude
0.00001°
Longitude
-101.91064°
Altitude
475.702 km
Speed
7.629 km/s
True Right ascension
07h 39m 03s
True Declination
0° 00' 00"
Sunlit
Object was in full shadow at epoch
Visualization orbit readout
Latitude
Unknown
Longitude
Unknown
Altitude
Unknown
Speed
Unknown
Apparent Right ascension
Unknown
Apparent Declination
Unknown
Sunlit
N/A
Visualization observer readout
Local Sidereal Time
02:53:05
Azimuth
Unknown
Elevation
Unknown
Doppler factor
Unknown
Orbital elements
Apogee altitude
473.779 km
Perigee altitude
469.549 km
Semi-major axis
6,849.801 km
Eccentricity
0.00031
Inclination
97.3847°
RAAN
114.7626°
Arg. of periapsis
1.8526°
True anomaly
358.27153°
Mean anomaly
358.2726°
Eccentric anomaly
358.27207°
Mean motion
3.82848 °/min
Orbital period
94.03 mins
BSTAR
0.00039302
Loading maneuver chart data...
Computing Atmospheric mass density...
Loading historical data...
Loading historical data...
Loading historical data...
Loading historical data...
Loading historical data...
Loading historical data...
Loading historical data...

Documentation

Showing up to 5 results
|